Weather History for Truth Or Consequences, NM

Change the Weather History Date:

Saturday, February 15, 2014

  Actual Average Record
Temperature  
Mean Temperature 66 °F -  
Max Temperature 82 °F 60 °F 82 °F (2014)
Min Temperature 50 °F 33 °F 26 °F (2004)
Degree Days  
Heating Degree Days 0    
Month to date heating degree days 239  
Since 1 July heating degree days 2313  
Cooling Degree Days 1    
Growing Degree Days 16 (Base 50)    
Moisture  
Dew Point 14 °F    
Average Humidity 16    
Maximum Humidity 26    
Minimum Humidity 5    
Precipitation  
Precipitation 0.00 in - 0.10 in (2008)
Month to date precipitation T  
Year to date precipitation T  
Sea Level Pressure  
Sea Level Pressure 29.92 in    
Wind  
Wind Speed 9 mph (West)    
Max Wind Speed 23 mph    
Max Gust Speed 28 mph    
Visibility 10 miles    
Events      
T = Trace of Precipitation, MM = Missing Value Source: NWS Daily Summary

Daily Weather History Graph

Daily Weather History Graph

Search for Another Location

Airport:

Trip Planner

Search our weather history database for the weather conditions in past years. The results will help you decide how hot, cold, wet, or windy it might be!

Date:

Astronomy

Feb. 15, 2014 Rise Set
Actual Time 6:52 AM MST 5:54 PM MST
Civil Twilight 6:27 AM MST 6:19 PM MST
Nautical Twilight 5:58 AM MST 6:48 PM MST
Astronomical Twilight 5:29 AM MST 7:17 PM MST
Moon 6:51 PM MST (2/15) 6:57 AM MST (2/15)
Length of Visible Light 11h 52m
Length of Day
11h 01m
Waxing Gibbous, 99% of the Moon is Illuminated
Feb 15
Waxing Gibbous
Feb 22
Last Quarter
Mar 1
New
Mar 8
First Quarter
Mar 16
Full

Hourly Weather History & Observations

Time (MST) Temp. Dew Point Humidity Pressure Visibility Wind Dir Wind Speed Gust Speed Precip Events Conditions
12:53 AM 55.0 °F 17.1 °F 23% 29.94 in 10.0 mi NW 8.1 mph - N/A   Clear
1:53 AM 57.0 °F 17.1 °F 21% 29.94 in 10.0 mi WNW 10.4 mph - N/A   Clear
2:53 AM 55.9 °F 17.1 °F 22% 29.94 in 10.0 mi NW 6.9 mph - N/A   Clear
3:53 AM 53.1 °F 17.1 °F 24% 29.94 in 10.0 mi West 8.1 mph - N/A   Clear
4:53 AM 51.1 °F 17.1 °F 26% 29.95 in 10.0 mi WSW 10.4 mph - N/A   Clear
5:53 AM 52.0 °F 17.1 °F 25% 29.96 in 10.0 mi West 13.8 mph - N/A   Clear
6:53 AM 52.0 °F 17.1 °F 25% 29.98 in 10.0 mi West 9.2 mph - N/A   Clear
7:53 AM 55.0 °F 18.0 °F 23% 29.99 in 10.0 mi West 12.7 mph - N/A   Clear
8:53 AM 62.1 °F 18.0 °F 18% 30.00 in 10.0 mi NW 9.2 mph - N/A   Clear
9:53 AM 69.1 °F 17.1 °F 14% 29.98 in 10.0 mi WNW 13.8 mph - N/A   Clear
10:53 AM 68.0 °F 18.0 °F 15% 29.98 in 10.0 mi SSE 9.2 mph - N/A   Clear
11:53 AM 71.1 °F 17.1 °F 13% 29.96 in 10.0 mi South 6.9 mph - N/A   Clear
12:53 PM 73.0 °F 18.0 °F 12% 29.92 in 10.0 mi SSE 6.9 mph - N/A   Clear
1:53 PM 77.0 °F 17.1 °F 10% 29.86 in 10.0 mi South 12.7 mph 18.4 mph N/A   Clear
2:53 PM 79.0 °F 15.1 °F 9% 29.83 in 10.0 mi South 8.1 mph - N/A   Clear
3:53 PM 81.0 °F 10.9 °F 7% 29.81 in 10.0 mi SSE 10.4 mph - N/A   Clear
4:53 PM 82.0 °F 6.1 °F 6% 29.80 in 10.0 mi SW 10.4 mph 16.1 mph N/A   Clear
5:14 PM 80.6 °F 3.2 °F 5% 30.00 in 10.0 mi WNW 16.1 mph 27.6 mph N/A   Clear
5:53 PM 75.9 °F 9.0 °F 8% 29.84 in 10.0 mi WSW 13.8 mph 23.0 mph N/A   Clear
6:53 PM 71.1 °F 10.9 °F 10% 29.88 in 10.0 mi WSW 10.4 mph - N/A   Clear
7:53 PM 62.1 °F 10.9 °F 13% 29.91 in 10.0 mi NW 8.1 mph - N/A   Clear
8:53 PM 62.1 °F 12.9 °F 15% 29.90 in 10.0 mi West 10.4 mph - N/A   Clear
9:53 PM 57.9 °F 12.0 °F 16% 29.90 in 10.0 mi ENE 3.5 mph - N/A   Clear
10:53 PM 60.1 °F 10.9 °F 14% 29.92 in 10.0 mi Calm Calm - N/A   Clear
11:53 PM 61.0 °F 10.0 °F 13% 29.90 in 10.0 mi Calm Calm - N/A   Clear